Flag for U.S.A. Weather past 2 weeks in Bloomington, Illinois, U.S.A.

Now
47 °F

Clear.


Feels Like: 43 °F
Forecast: 41 / 66 °F
Wind: 7 mph from East

Location: Bloomington / Normal


UV Index: 0 (Low)

Visibility: 10 mi


Pressure: 30.04 "Hg

Humidity: 80%

Dew point: 41 °F

Location of BloomingtonLocation

Historic Weather in Bloomington

°F

Bloomington temperature yesterday

Maximum temperature yesterday: 62 °F (at 3:56 PM)
Minimum temperature yesterday: 39 °F (at 11:56 PM)
Average temperature yesterday: 53 °F

Past Weeks' High & Low Weather Summary

 TemperatureHumidityPressure
High78 °F (Apr 20, 2:56 PM)96% (Apr 14, 5:56 PM)30.36 "Hg (Apr 14, 5:56 PM)
Low25 °F (Apr 15, 6:56 AM)17% (Apr 11, 2:56 PM)29.41 "Hg (Apr 14, 12:56 AM)
Average51 °F58%30.04 "Hg
* Reported Apr 8 9:56 PM — Apr 23 9:56 PM, Bloomington, Weather by CustomWeather, © 2014

Note: Actual official high and low records may vary slightly from our data, if they occured in-between our weather recording intervals... More about our weather records

Advertising

Historic Weather Conditions — Data for Previous 24 hours

 ConditionsComfort  
Time TempWeatherWind HumidityBarometerVisibility
9:56 PM
Apr 23
47 °FClear.7 mph80%30.04 "Hg10 mi
8:56 PM49 °FLight rain. Passing clouds.15 mph68%30.04 "Hg10 mi
7:56 PM50 °FLight rain. Scattered clouds.9 mph61%30.06 "Hg10 mi
6:56 PM53 °FLight rain. Mostly cloudy.12 mph53%30.07 "Hg8 mi
5:56 PM57 °FSunny.6 mph30%30.10 "Hg10 mi
4:56 PM59 °FPassing clouds.7 mph26%30.09 "Hg10 mi
3:56 PM60 °FSunny.8 mph27%30.10 "Hg10 mi
2:56 PM59 °FPassing clouds.10 mph30%30.11 "Hg10 mi
1:56 PM56 °FSunny.3 mph31%30.14 "Hg10 mi
12:56 PM55 °FSunny.7 mph36%30.16 "Hg10 mi
11:56 AM52 °FPassing clouds.9 mph40%30.17 "Hg10 mi
10:56 AM49 °FSunny.10 mph46%30.19 "Hg10 mi
9:56 AM44 °FSunny.10 mph56%30.19 "Hg10 mi
8:56 AM41 °FSunny.16 mph63%30.19 "Hg10 mi
7:56 AM38 °FSunny.13 mph71%30.19 "Hg10 mi
6:56 AM33 °FClear.9 mph82%30.17 "Hg10 mi
5:56 AM31 °FClear.10 mph85%30.15 "Hg10 mi
4:56 AM32 °FClear.10 mph82%30.14 "Hg10 mi
3:56 AM33 °FClear.6 mph79%30.13 "Hg10 mi
2:56 AM33 °FClear.6 mph79%30.11 "Hg10 mi
1:56 AM35 °FClear.6 mph76%30.11 "Hg10 mi
12:56 AM37 °FClear.10 mph73%30.11 "Hg10 mi
11:56 PM
Apr 22
39 °FClear.12 mph74%30.09 "Hg10 mi
Weather by CustomWeather, © 2014

See weather overview